Wind_Speed
48 48 47 45 45 44 43 42 40 40 38 37 36 35 34 34 33 32 32 32 31 31 30 29 29 29 29 29 29 29 30 30 31 32 32 33 34 35 36 37 37 39 40
50 50 49 48 47 46 45 44 43 42 41 40 39 38 36 36 35 35 34 34 33 32 32 32 31 31 30 30 30 30 31 31 32 33 33 34 35 36 37 38 39 40 41
52 52 51 50 49 49 48 47 46 45 44 43 42 40 39 38 38 37 36 36 35 34 34 34 33 33 32 32 32 32 32 32 33 33 34 35 36 37 38 39 40 41 43
54 53 52 52 52 51 50 49 48 47 46 46 44 42 41 41 40 39 39 37 37 36 35 34 34 34 33 33 34 33 34 34 34 34 35 36 37 38 39 40 41 43 44
55 54 54 53 53 53 52 51 51 50 49 47 47 45 44 43 42 40 40 39 38 38 37 36 36 35 34 34 34 34 35 35 35 35 36 37 38 39 40 41 43 44 45
57 56 55 54 54 54 54 53 53 52 51 50 49 48 46 45 44 42 41 40 39 39 38 37 36 36 36 35 35 35 35 36 36 36 37 38 39 40 41 42 44 44 46
58 57 57 56 56 55 55 54 54 54 53 52 51 50 49 48 46 44 43 41 41 41 40 38 38 38 38 37 36 36 36 37 37 37 37 38 39 41 42 43 44 45 47
57 58 57 56 56 56 56 56 56 55 55 54 53 52 51 49 48 46 45 43 42 42 41 39 38 39 39 38 38 38 38 38 38 38 38 39 40 42 43 44 45 46 48
54 56 57 57 57 57 57 56 56 57 56 56 55 53 52 51 49 48 46 44 43 42 41 40 40 40 39 39 39 39 39 38 38 39 40 41 41 42 43 44 45 47 48
53 55 55 57 56 55 55 56 56 56 56 56 56 55 54 52 51 50 48 46 44 43 42 42 41 41 40 39 39 39 39 38 39 39 40 41 42 43 44 45 46 48 49
50 52 53 55 55 55 54 55 55 55 55 56 57 56 54 53 52 51 49 48 46 45 43 42 42 41 41 41 40 40 40 39 40 40 40 41 42 43 44 45 47 48 49
47 48 51 53 54 54 53 53 54 54 54 55 56 56 55 53 52 51 49 49 48 46 44 43 42 41 42 41 42 41 39 40 41 41 41 41 42 43 44 46 47 48 48
46 47 48 50 52 53 53 53 51 51 52 53 53 54 54 54 52 51 50 49 47 46 45 44 42 42 41 41 41 41 40 40 41 41 41 42 43 44 46 46 47 47 46
45 46 47 48 50 51 51 50 50 49 50 49 50 52 53 53 51 50 49 48 46 46 45 43 43 42 40 41 41 41 41 40 40 41 41 42 43 45 46 46 47 46 46
45 44 45 46 47 48 48 48 48 48 48 48 48 49 51 51 50 48 48 48 46 45 43 42 42 41 40 41 41 41 40 39 40 41 42 42 43 45 45 46 46 45 45
43 44 43 45 46 46 46 47 47 48 48 46 46 47 49 50 50 47 47 47 45 44 43 43 42 42 41 41 40 41 40 40 40 41 42 42 42 44 44 44 44 43 43
41 43 43 44 44 44 44 45 45 45 46 46 45 45 46 47 48 47 45 44 43 43 43 42 42 42 40 39 39 39 40 40 40 40 42 42 42 43 42 43 43 42 43
39 40 41 41 42 43 43 43 43 44 45 45 44 45 45 45 46 45 44 42 42 43 42 41 41 40 40 39 39 39 39 39 40 41 42 41 42 42 43 42 41 41 42
36 37 38 39 40 42 42 42 42 44 44 44 44 44 44 44 44 44 44 42 41 42 42 41 41 40 39 39 39 38 38 39 40 41 42 41 41 42 42 40 40 40 41
34 34 36 37 38 40 41 41 40 43 43 43 43 43 43 44 44 44 45 43 42 42 41 41 41 40 39 39 38 38 38 39 39 40 41 40 40 40 39 39 39 40 41
31 32 33 34 36 38 39 39 39 40 42 42 42 42 43 43 44 44 44 43 42 42 41 41 40 39 39 39 39 38 38 39 39 39 39 39 38 37 38 38 38 39 40
29 30 32 34 34 35 36 37 38 38 40 40 40 41 42 43 42 42 42 42 41 41 40 40 38 38 37 37 38 37 38 38 37 37 36 36 35 36 36 37 37 38 39
29 30 31 32 32 33 34 34 34 35 38 38 38 39 41 42 41 41 40 41 40 40 40 39 39 39 38 37 37 37 36 36 35 35 35 34 35 35 35 35 36 37 38
28 29 29 30 29 30 31 31 31 32 34 35 36 37 39 39 39 40 40 39 38 38 39 39 39 39 38 37 36 36 36 35 35 34 34 34 34 34 34 34 35 36 38
25 25 25 27 27 28 28 29 30 31 32 32 33 35 37 37 36 38 38 38 38 37 37 38 37 37 37 36 35 36 35 34 33 32 32 33 33 33 33 33 34 36 37
24 24 24 25 26 27 27 27 27 30 31 32 33 33 34 35 36 36 37 37 37 37 37 37 37 36 35 35 34 34 33 33 32 31 31 32 32 32 33 33 34 35 36
Wind_Direction
249 250 251 251 252 253 254 254 255 256 257 258 259 260 261 262 262 262 264 266 267 270 270 272 276 279 282 285 288 292 295 298 300 302 305 306 307 308 308 309 310 311 312
250 250 251 251 251 252 253 253 254 255 256 257 258 258 260 261 261 262 263 264 266 268 271 274 275 278 281 284 287 290 293 296 299 302 303 305 306 307 308 309 309 310 311
250 250 250 250 251 251 252 252 253 254 255 256 257 258 259 260 261 261 261 263 264 267 270 273 275 276 279 282 285 289 292 295 298 300 302 304 305 306 307 308 309 309 310
250 250 250 250 250 250 251 252 252 253 254 255 256 257 258 259 261 260 260 261 263 266 269 273 275 275 277 281 284 287 290 293 296 299 301 303 305 306 307 307 308 309 310
250 251 250 250 251 250 250 250 251 252 253 254 255 256 257 258 259 260 260 261 262 265 268 272 274 274 276 279 282 285 289 292 295 297 300 302 304 305 306 307 308 309 310
249 250 250 250 250 250 251 250 251 251 252 253 254 254 255 256 257 258 259 260 262 264 267 271 273 274 276 278 281 284 287 291 293 296 298 301 304 305 306 307 308 308 309
249 249 249 249 249 250 251 251 251 250 251 252 252 253 254 255 256 258 259 259 262 264 266 268 271 273 275 277 280 283 286 289 292 295 298 300 303 304 306 307 308 308 310
248 248 248 249 249 249 250 251 251 251 251 251 251 252 252 253 254 256 257 258 260 262 264 267 270 273 273 277 279 282 285 288 291 294 297 300 301 304 306 306 307 308 310
248 248 248 249 249 249 250 251 252 251 251 250 249 250 250 251 252 254 255 257 258 260 263 266 269 272 272 275 278 281 284 286 289 293 297 298 300 303 305 306 307 309 310
250 250 250 249 249 250 250 250 251 251 251 249 248 248 248 249 250 252 253 255 257 259 262 265 267 270 272 274 277 281 283 286 289 292 295 297 299 301 304 306 307 309 310
251 251 251 250 250 250 251 251 250 250 250 249 247 246 246 247 248 250 252 255 256 258 261 264 267 269 271 274 276 279 282 285 288 292 294 297 299 300 303 305 307 309 311
253 254 253 251 251 250 250 250 250 248 248 248 246 245 244 245 246 248 250 253 255 257 259 262 264 267 269 272 275 277 281 285 288 292 294 297 299 301 303 306 307 309 311
254 254 254 253 251 250 249 248 249 247 246 247 247 245 243 243 244 246 248 250 253 255 257 261 263 265 268 271 274 277 281 285 289 292 295 296 299 300 302 305 307 309 310
255 254 254 253 250 248 247 247 247 246 246 247 247 245 243 242 243 245 247 250 252 254 256 259 262 263 266 270 274 277 280 284 288 293 295 297 298 301 303 305 307 309 310
254 253 253 252 249 246 246 246 245 245 246 247 247 245 242 241 241 244 246 248 250 253 255 258 260 263 265 270 272 275 280 284 288 292 294 296 299 301 303 305 307 309 310
253 253 252 251 250 248 247 246 245 245 246 246 246 245 242 240 240 242 245 246 249 252 254 257 260 262 265 270 273 276 279 283 287 292 294 296 299 301 303 304 306 307 309
253 252 253 250 248 247 247 246 246 247 247 246 247 246 243 242 240 242 244 246 248 251 254 256 260 262 264 268 272 276 280 283 287 291 294 296 298 300 302 304 305 307 309
254 252 252 250 247 247 246 246 246 246 246 245 246 245 242 241 241 243 244 246 249 251 253 256 259 261 264 267 271 275 280 282 286 290 293 296 298 299 301 303 305 307 310
253 252 251 250 248 247 246 246 247 245 245 245 245 244 242 242 240 243 244 247 249 251 252 254 256 259 263 266 271 275 279 282 286 289 292 295 298 300 301 303 305 307 310
254 251 249 249 250 247 246 246 247 245 243 243 244 244 243 242 240 243 246 248 249 250 251 253 255 258 262 265 270 275 278 282 287 290 293 296 298 299 302 304 306 308 310
254 252 252 253 252 248 246 247 247 245 243 243 244 243 241 240 240 244 247 249 249 251 251 253 256 259 262 264 270 275 278 282 287 290 293 295 297 299 302 305 307 309 311
256 256 257 253 250 247 247 248 249 248 244 243 243 241 239 239 241 244 246 248 249 250 251 253 256 258 262 265 270 274 278 282 287 290 293 295 297 300 302 305 308 310 311
259 259 257 252 248 248 250 251 250 247 243 241 239 239 239 239 241 243 244 246 247 249 251 254 255 256 261 265 269 274 278 281 286 288 291 294 297 300 303 306 309 310 311
261 258 255 251 250 250 251 251 251 248 243 240 240 240 239 239 239 241 243 245 247 249 252 254 256 258 261 263 268 272 275 279 283 286 290 293 296 300 303 305 308 309 311
259 255 253 251 250 249 251 252 252 248 243 240 241 239 239 239 239 240 242 244 246 247 251 254 256 259 260 262 267 269 273 278 282 286 289 292 294 298 302 306 308 310 312
259 255 253 250 249 249 249 249 249 247 245 243 240 239 239 238 239 240 243 244 245 247 250 255 256 258 260 262 265 268 272 277 281 285 287 289 292 296 301 305 308 311 313
Height
5780 5783 5785 5787 5789 5791 5793 5795 5796 5797 5798 5799 5800 5801 5802 5803 5803 5804 5804 5804 5804 5804 5804 5803 5802 5801 5800 5799 5797 5795 5793 5790 5787 5784 5781 5778 5774 5770 5766 5762 5758 5753 5748
5770 5772 5775 5777 5779 5782 5784 5786 5787 5789 5790 5791 5793 5794 5795 5796 5796 5797 5797 5798 5798 5798 5797 5797 5796 5795 5794 5793 5791 5789 5787 5784 5781 5778 5775 5771 5768 5764 5760 5755 5751 5746 5741
5758 5761 5764 5766 5769 5771 5774 5776 5778 5780 5781 5783 5784 5786 5787 5788 5788 5789 5790 5790 5790 5790 5790 5790 5789 5789 5788 5786 5785 5783 5780 5778 5775 5772 5768 5765 5761 5757 5753 5748 5744 5739 5733
5744 5748 5751 5755 5757 5760 5763 5765 5767 5769 5772 5774 5775 5777 5778 5780 5780 5781 5782 5782 5783 5783 5783 5783 5782 5781 5781 5779 5778 5776 5774 5771 5768 5765 5762 5758 5754 5750 5746 5741 5736 5731 5726
5731 5734 5738 5742 5745 5747 5751 5753 5756 5758 5761 5763 5765 5767 5769 5771 5772 5773 5773 5774 5775 5776 5775 5775 5775 5774 5773 5772 5771 5769 5767 5764 5761 5758 5755 5751 5747 5743 5738 5733 5728 5723 5717
5717 5720 5724 5728 5731 5734 5738 5741 5744 5746 5749 5752 5754 5757 5759 5761 5762 5764 5765 5766 5767 5768 5768 5767 5767 5766 5766 5765 5763 5762 5759 5757 5754 5751 5747 5744 5740 5735 5731 5726 5720 5715 5709
5702 5706 5710 5714 5717 5721 5725 5728 5731 5734 5736 5739 5742 5745 5748 5750 5752 5754 5756 5757 5758 5759 5759 5759 5759 5759 5758 5757 5755 5754 5752 5749 5746 5743 5740 5736 5732 5727 5723 5718 5712 5706 5700
5686 5690 5695 5699 5703 5707 5711 5714 5717 5720 5723 5727 5730 5732 5736 5739 5741 5744 5746 5748 5749 5750 5751 5751 5751 5751 5750 5749 5748 5746 5744 5742 5739 5736 5732 5728 5724 5720 5715 5709 5704 5698 5691
5670 5675 5679 5683 5687 5692 5696 5700 5703 5706 5710 5713 5716 5720 5724 5728 5731 5733 5736 5738 5740 5741 5742 5743 5743 5742 5742 5741 5739 5738 5736 5734 5731 5728 5724 5720 5716 5711 5706 5701 5695 5689 5683
5656 5660 5664 5667 5671 5676 5680 5684 5687 5691 5694 5698 5702 5707 5711 5715 5719 5722 5725 5728 5730 5732 5733 5734 5734 5734 5733 5732 5731 5730 5728 5725 5723 5720 5716 5712 5708 5703 5698 5692 5686 5680 5674
5642 5645 5649 5652 5656 5660 5665 5669 5672 5676 5679 5684 5688 5693 5697 5702 5706 5711 5715 5718 5720 5722 5724 5725 5725 5725 5725 5724 5723 5721 5719 5717 5714 5711 5708 5704 5699 5694 5689 5683 5677 5671 5665
5629 5632 5634 5637 5641 5645 5649 5654 5657 5661 5665 5669 5673 5678 5684 5689 5694 5699 5703 5707 5709 5712 5714 5715 5716 5716 5716 5715 5714 5712 5711 5708 5706 5703 5699 5695 5691 5686 5680 5675 5669 5662 5656
5616 5619 5621 5623 5627 5631 5635 5639 5643 5647 5651 5655 5660 5665 5670 5676 5682 5686 5691 5694 5698 5701 5703 5705 5706 5706 5706 5706 5705 5703 5702 5700 5697 5694 5691 5687 5682 5677 5672 5666 5660 5654 5647
5604 5606 5608 5610 5614 5617 5621 5626 5631 5635 5639 5643 5647 5652 5657 5663 5669 5674 5679 5683 5687 5690 5693 5695 5696 5697 5697 5697 5696 5694 5693 5691 5689 5686 5682 5678 5673 5668 5663 5658 5652 5645 5639
5590 5593 5596 5598 5601 5605 5609 5614 5619 5624 5628 5632 5636 5640 5645 5651 5657 5662 5667 5671 5676 5679 5683 5685 5686 5687 5688 5688 5687 5685 5684 5682 5680 5677 5673 5669 5664 5660 5654 5649 5643 5637 5630
5578 5581 5583 5586 5590 5594 5598 5602 5608 5613 5617 5621 5625 5629 5634 5640 5645 5650 5655 5660 5664 5668 5672 5675 5677 5678 5678 5678 5677 5676 5675 5674 5671 5668 5664 5660 5655 5651 5646 5640 5635 5628 5622
5567 5569 5572 5575 5579 5583 5587 5592 5597 5602 5606 5610 5615 5618 5623 5629 5634 5640 5645 5650 5653 5657 5660 5664 5666 5667 5668 5668 5668 5667 5666 5664 5662 5659 5655 5651 5647 5642 5637 5632 5626 5619 5613
5557 5559 5562 5565 5568 5573 5577 5581 5585 5590 5595 5599 5604 5608 5613 5618 5624 5629 5634 5639 5643 5647 5650 5653 5656 5657 5658 5659 5659 5658 5657 5655 5653 5650 5646 5642 5638 5633 5628 5623 5617 5611 5605
5548 5550 5553 5555 5559 5563 5567 5570 5575 5579 5584 5589 5593 5598 5603 5608 5613 5619 5624 5628 5632 5636 5639 5643 5645 5647 5648 5649 5649 5648 5647 5645 5643 5640 5637 5633 5629 5624 5619 5614 5608 5603 5597
5539 5541 5544 5547 5550 5553 5557 5560 5564 5569 5573 5578 5583 5587 5592 5598 5604 5608 5613 5618 5622 5625 5629 5632 5635 5637 5638 5639 5639 5638 5637 5635 5633 5631 5628 5624 5620 5615 5611 5606 5601 5595 5589
5531 5533 5535 5538 5541 5544 5547 5551 5554 5558 5563 5568 5572 5577 5582 5587 5593 5598 5603 5607 5611 5615 5618 5621 5625 5627 5628 5629 5629 5629 5627 5626 5624 5622 5618 5615 5611 5607 5602 5598 5592 5587 5581
5524 5525 5527 5530 5532 5535 5539 5542 5545 5548 5552 5557 5561 5566 5571 5577 5583 5588 5593 5597 5601 5604 5608 5611 5614 5617 5619 5620 5620 5619 5618 5617 5615 5613 5609 5606 5603 5599 5595 5590 5585 5579 5574
5516 5518 5519 5521 5524 5527 5530 5533 5535 5539 5543 5547 5551 5556 5561 5567 5573 5578 5582 5586 5590 5593 5597 5601 5604 5607 5609 5610 5610 5610 5609 5608 5606 5603 5600 5598 5595 5591 5587 5582 5577 5572 5566
5509 5510 5512 5514 5516 5519 5522 5524 5526 5529 5533 5538 5542 5547 5552 5558 5563 5567 5572 5576 5579 5583 5587 5591 5594 5597 5598 5599 5600 5600 5599 5598 5597 5594 5592 5590 5587 5583 5579 5574 5569 5564 5558
5503 5504 5505 5507 5509 5512 5514 5517 5518 5521 5525 5530 5534 5539 5544 5549 5554 5558 5562 5567 5571 5575 5578 5581 5584 5586 5587 5588 5589 5589 5589 5589 5588 5586 5584 5582 5578 5575 5571 5567 5562 5557 5551
5497 5498 5499 5501 5503 5505 5508 5510 5512 5515 5518 5522 5526 5530 5535 5540 5545 5549 5553 5557 5562 5566 5569 5572 5574 5576 5577 5578 5579 5580 5580 5580 5579 5578 5576 5573 5570 5566 5563 5559 5554 5549 5543